Wind_Speed
23 23 23 21 18 17 18 19 16 17 21 23 26 27 26 23 20 19 18 18 19 21 22 22 23 23 22 22 20 19 19 18 18 17 17 16 16 16 16 17 18 19 19 21 22 23 24 25 24 23 22 22 21 21 20 19 18 18 18 18 17 17
22 21 20 16 15 16 17 17 15 15 18 21 22 22 21 20 19 18 17 19 20 21 21 22 22 22 21 21 20 20 19 19 18 18 17 17 16 16 16 17 18 19 19 20 22 23 24 25 25 24 24 24 24 23 22 20 20 20 19 19 19 19
18 18 16 14 16 17 16 17 16 16 16 18 19 19 19 19 18 18 18 19 20 20 20 20 20 20 20 20 20 20 20 19 18 18 18 18 17 16 17 17 18 19 19 20 21 23 24 25 26 26 26 26 26 25 23 22 22 22 21 21 20 20
14 16 16 14 13 14 15 16 15 15 16 18 19 19 19 20 19 19 19 20 19 18 18 19 19 20 20 20 21 21 20 19 19 18 18 18 17 17 17 17 18 19 19 19 20 22 24 26 27 27 27 27 27 26 25 24 24 24 23 22 21 22
12 15 15 12 11 13 15 17 17 18 19 21 22 20 19 19 19 20 20 19 17 17 18 19 20 20 21 21 21 20 19 19 18 17 17 17 17 17 17 18 18 18 18 18 19 21 24 26 27 27 27 27 27 26 26 26 25 25 24 23 23 23
13 13 14 13 13 14 15 15 17 20 20 19 20 20 21 20 19 20 18 17 17 17 18 20 20 20 21 21 20 19 19 19 18 17 17 17 17 17 18 18 18 18 18 18 18 20 23 26 27 27 27 26 26 26 26 27 27 26 25 25 24 24
13 12 13 13 13 14 13 12 11 15 17 18 17 15 18 20 19 18 17 17 17 18 19 20 21 21 21 20 19 19 19 18 18 18 17 17 17 18 18 18 18 18 17 17 17 19 22 24 26 26 25 25 26 26 27 27 27 27 26 25 24 24
12 12 13 13 13 13 13 11 9 10 13 17 16 12 14 17 17 17 16 17 17 18 19 20 22 22 20 19 18 18 19 19 19 18 18 18 18 18 18 18 16 16 16 17 17 19 21 22 23 24 24 24 25 26 26 27 27 26 26 25 24 24
12 12 12 13 13 12 12 12 11 11 11 12 14 13 13 14 14 15 16 17 18 19 19 20 21 21 19 17 18 19 19 19 18 18 18 18 18 18 18 17 17 16 15 16 17 19 20 21 22 22 23 23 24 25 25 26 26 26 25 25 24 24
13 13 12 12 11 10 11 14 15 12 9 9 13 16 15 13 13 14 15 16 17 18 18 18 19 19 18 18 19 19 19 18 17 18 18 17 18 18 18 17 18 18 16 16 17 18 19 21 22 22 22 22 23 23 23 24 24 25 24 24 24 23
12 12 11 11 11 12 11 12 13 11 10 10 12 13 13 12 12 13 14 16 16 17 18 18 17 17 17 17 18 16 15 15 16 17 16 17 17 16 17 17 17 18 17 17 16 16 18 19 21 21 21 21 22 22 22 23 23 23 22 22 23 22
13 13 12 11 11 12 10 8 9 10 11 10 9 9 10 11 11 12 15 15 15 16 17 18 17 16 15 16 15 14 13 14 14 15 15 16 15 14 16 16 16 17 17 16 16 16 17 17 19 20 20 21 21 22 23 23 23 23 22 22 23 22
12 12 11 10 9 9 9 9 9 9 9 9 8 9 9 10 11 14 16 14 14 15 16 17 15 13 14 13 12 12 13 14 12 12 14 15 15 14 15 15 15 16 17 16 15 16 16 17 18 19 19 21 21 22 23 24 24 24 23 24 24 24
9 10 10 9 9 9 9 9 9 8 9 9 8 9 9 11 12 14 15 13 14 15 15 15 13 12 11 10 11 10 11 12 12 11 13 14 15 14 14 14 15 16 16 16 15 16 17 17 17 17 19 20 21 22 23 24 24 24 24 25 25 25
7 9 10 11 11 12 12 11 11 11 11 11 10 10 11 12 12 13 13 13 13 14 14 14 11 11 11 8 9 10 10 11 11 11 13 14 15 15 14 15 15 16 16 16 16 16 17 17 17 18 19 20 21 22 23 23 23 23 23 24 25 26
8 10 10 12 13 14 14 14 13 12 12 12 12 12 12 12 13 12 13 13 12 12 12 12 10 10 10 8 8 9 9 10 11 11 13 14 15 16 16 15 15 16 17 17 17 17 17 17 17 17 18 19 20 21 22 22 22 22 22 23 25 25
9 10 10 11 13 13 13 13 12 12 13 13 13 13 13 13 13 12 12 13 13 12 11 10 8 8 8 8 8 9 10 10 11 12 13 15 15 16 16 16 16 16 17 17 18 18 18 17 16 16 17 18 19 20 20 20 21 21 21 21 22 21
11 9 8 9 10 11 12 13 12 12 13 14 13 13 14 14 14 13 12 12 13 13 12 11 9 8 8 8 9 10 11 12 12 12 14 15 16 16 16 17 17 16 16 17 18 18 17 16 16 16 17 17 18 19 19 19 19 20 20 21 21 20
11 8 7 8 8 9 10 11 11 12 13 14 14 14 14 14 14 14 13 13 13 13 13 13 11 10 8 9 10 11 11 12 13 13 14 14 15 16 17 17 16 16 16 17 17 18 17 16 16 17 17 17 17 18 18 18 19 19 20 21 21 21
13 8 7 7 7 7 8 9 10 10 12 12 13 13 13 13 13 14 14 14 14 14 14 14 13 11 10 10 11 11 11 11 13 14 14 14 14 15 16 16 16 15 16 16 17 17 17 16 17 17 17 16 16 17 17 18 18 18 19 19 20 21
13 10 9 8 8 8 9 10 9 10 11 12 12 12 13 13 13 14 14 14 14 15 15 15 14 13 12 12 12 12 12 12 13 14 14 13 14 14 15 15 15 15 15 16 18 18 17 17 17 17 16 16 16 16 16 16 17 17 18 18 19 21
13 12 11 10 11 11 12 12 11 12 12 12 12 12 13 13 13 14 15 15 15 15 16 16 15 15 14 13 13 12 12 12 13 14 14 13 14 15 15 15 16 16 16 17 18 19 18 17 17 16 16 16 16 16 16 16 16 17 17 18 19 19
13 12 12 13 14 14 15 14 13 13 13 13 13 13 13 13 14 14 15 15 16 16 16 15 15 14 14 14 14 13 13 13 13 13 14 14 15 16 16 16 16 16 17 18 19 20 20 19 17 16 16 16 16 16 16 16 16 16 17 17 18 18
14 14 14 16 17 17 16 16 15 15 15 15 15 14 14 14 14 15 15 16 16 16 15 15 14 12 11 11 13 14 14 14 14 14 15 15 16 17 17 17 16 16 17 18 20 20 21 20 19 17 17 17 17 17 16 15 15 15 16 16 16 17
16 16 18 19 19 18 17 17 17 17 17 17 16 15 15 14 14 15 16 16 16 16 15 14 13 12 10 9 11 13 14 14 14 15 16 16 17 17 18 18 17 17 17 19 20 20 21 21 19 18 17 17 17 18 17 15 14 15 15 15 15 15
19 19 20 20 20 19 19 18 18 17 18 18 17 15 14 14 13 13 15 16 16 16 15 15 14 13 13 12 12 13 15 15 15 15 16 17 17 18 18 18 18 17 18 19 19 20 21 20 19 19 18 17 17 18 17 16 15 16 16 16 15 16
19 20 20 20 20 20 20 19 18 18 18 17 16 15 14 14 13 12 12 13 14 15 16 16 16 17 17 18 18 17 17 17 17 16 16 17 18 18 19 19 18 18 18 19 19 20 20 20 20 19 18 18 19 19 18 17 18 18 17 17 17 18
19 19 20 20 20 20 20 18 18 18 18 17 16 15 15 14 14 13 12 12 13 15 16 17 17 19 20 22 22 21 19 19 19 19 18 17 18 19 19 19 19 19 20 20 20 20 20 20 20 20 19 20 20 19 19 19 18 18 18 18 18 18
19 20 20 20 20 20 19 18 17 17 17 16 16 15 15 16 16 15 15 14 14 15 17 17 18 19 21 23 23 23 21 20 20 21 21 19 18 18 19 20 20 21 21 21 21 21 20 20 20 20 20 21 21 20 20 19 18 18 18 17 17 18
20 20 20 20 19 19 18 17 16 16 16 16 16 17 17 18 18 18 18 18 18 19 19 19 20 21 22 23 24 24 23 21 21 22 23 21 19 19 19 20 21 21 22 22 22 22 21 21 20 20 20 21 21 21 20 20 19 19 18 18 18 18
22 22 21 20 19 18 17 17 17 17 17 18 19 20 21 21 22 22 22 22 23 23 23 23 22 22 23 24 25 25 24 23 21 22 23 23 21 19 19 19 21 22 22 23 24 23 23 22 22 21 21 21 20 21 20 20 20 19 19 19 19 19
24 23 21 20 19 19 19 19 19 19 20 21 22 22 23 23 24 24 25 25 25 26 26 25 24 22 22 23 24 24 23 23 22 22 22 23 21 20 19 20 20 21 22 23 24 24 24 24 24 23 22 21 21 21 21 20 20 19 19 19 19 19
26 24 23 21 21 22 22 23 22 22 23 23 24 24 24 24 23 24 25 26 26 27 27 26 24 23 21 21 22 22 22 23 22 22 21 21 20 20 20 20 20 21 21 22 23 24 25 25 25 24 23 22 22 22 21 20 20 19 18 18 18 18
26 25 24 24 23 24 25 24 23 23 24 25 24 23 23 23 22 23 25 26 28 28 27 26 24 23 21 20 20 21 21 22 22 21 20 19 19 18 19 19 20 21 22 23 23 24 25 25 25 25 24 23 23 22 21 20 19 19 19 18 18 18
24 23 22 23 24 24 24 23 23 25 25 24 23 21 21 21 21 24 26 27 28 27 25 24 22 21 20 19 19 20 20 21 20 18 17 17 16 16 17 18 19 20 22 23 24 25 25 26 25 25 24 23 22 21 20 20 18 18 17 17 17 16
24 21 19 20 23 24 23 24 24 24 23 22 21 20 20 20 22 25 26 26 25 25 24 22 21 20 19 19 19 19 19 19 18 16 15 15 14 15 15 16 18 19 21 22 24 25 25 25 25 24 23 22 21 20 19 18 17 16 16 16 15 15
26 24 20 19 21 22 23 23 22 21 20 20 21 21 21 22 22 22 22 22 23 23 23 23 21 20 19 19 19 18 18 17 16 14 13 13 13 13 14 16 17 18 19 21 22 23 24 24 24 23 22 21 19 18 17 17 16 16 15 15 14 13
Wind_Direction
302 296 295 294 282 269 261 257 255 256 255 254 252 244 238 235 235 239 244 255 265 270 272 272 272 273 276 278 281 282 281 280 279 277 273 269 265 263 260 258 258 255 247 238 231 229 231 236 239 239 241 243 244 245 245 246 248 249 250 251 251 251
298 291 289 282 271 268 262 256 256 261 255 245 241 239 237 233 234 239 248 263 271 272 271 271 272 274 277 279 281 281 280 280 276 273 270 267 265 263 261 258 256 254 250 242 234 231 232 236 240 241 242 244 245 246 246 246 247 247 248 250 251 252
293 283 273 264 266 269 261 254 255 255 244 236 238 241 239 236 239 245 258 272 273 272 272 272 274 276 279 280 281 281 279 278 275 272 270 268 267 265 263 260 257 254 251 245 237 234 235 238 241 242 242 243 245 246 247 246 246 246 246 246 249 251
281 269 261 260 260 258 257 258 255 246 241 247 249 244 243 243 245 253 266 273 271 272 275 276 278 279 280 279 279 280 278 276 274 273 272 271 270 269 267 265 260 256 252 247 240 236 236 239 241 243 243 243 245 246 246 246 246 246 246 245 247 249
268 259 257 259 252 249 255 255 249 244 249 259 256 249 247 246 248 260 269 270 271 275 277 278 278 278 278 277 277 278 278 277 276 275 274 273 271 269 268 267 263 257 253 248 242 237 236 239 241 243 244 244 244 245 245 245 245 245 245 245 245 246
260 253 252 252 247 248 249 246 246 245 246 255 259 253 246 247 254 262 267 268 272 275 276 277 276 276 276 276 277 277 277 277 277 276 272 271 268 265 263 265 263 257 252 248 241 235 236 239 242 244 245 245 245 244 244 244 244 244 244 244 243 245
256 249 246 245 242 243 240 236 236 237 238 242 251 254 246 250 258 261 265 269 271 273 273 275 275 275 275 275 276 275 275 275 273 271 267 265 263 260 258 259 261 257 250 245 240 233 233 237 241 244 245 245 245 245 245 245 246 245 245 245 244 244
255 249 243 240 239 240 243 241 229 231 240 240 246 260 259 256 260 263 267 269 270 272 272 275 277 276 274 275 275 273 271 269 268 266 264 262 258 257 256 255 255 255 251 244 240 233 231 234 239 242 242 243 243 244 245 246 248 248 248 247 246 245
251 251 247 245 243 237 237 243 248 254 253 249 254 267 274 268 266 269 271 271 271 272 272 274 275 276 276 274 270 267 264 264 264 264 262 259 257 256 256 254 251 249 248 244 238 233 230 231 234 237 239 241 242 244 245 246 247 249 250 249 247 246
245 247 251 249 244 232 230 241 253 266 270 267 267 270 279 281 276 276 274 272 271 272 274 276 276 279 279 271 265 262 261 263 263 262 261 258 257 257 256 254 251 248 244 242 240 235 232 230 231 233 237 239 241 243 244 246 247 249 250 250 249 247
246 244 250 249 245 249 251 248 251 265 275 275 272 271 278 283 282 278 273 271 274 276 278 282 282 283 282 271 267 269 270 267 263 262 262 260 259 259 259 255 253 250 244 243 245 242 237 234 232 232 234 236 238 239 240 243 247 248 250 251 250 248
251 242 244 245 245 252 255 253 256 266 273 273 276 277 281 287 286 279 276 276 278 278 278 281 281 280 277 270 272 278 278 273 268 266 264 264 262 260 262 256 252 251 246 243 245 245 241 239 238 234 232 232 234 235 237 241 244 246 248 250 251 250
253 236 232 237 234 239 249 259 268 276 281 280 281 282 284 289 285 280 282 278 274 274 276 282 284 283 280 276 277 277 275 273 272 268 265 265 262 260 259 254 251 250 246 241 240 242 240 239 241 239 235 233 232 234 235 238 240 243 246 248 250 251
246 229 228 232 228 239 254 263 272 285 292 291 284 277 279 282 280 280 282 277 272 275 284 292 290 289 292 289 283 277 272 270 268 265 264 263 261 259 256 255 256 251 247 242 238 239 238 238 240 240 241 238 236 235 235 237 239 241 244 246 249 250
233 231 238 239 240 251 259 266 276 289 296 295 284 273 271 275 276 274 274 274 274 278 293 304 300 296 302 300 285 278 272 268 264 260 258 259 261 263 263 263 261 254 250 246 242 241 239 240 240 240 242 241 240 239 238 238 239 241 244 246 249 250
227 232 240 243 247 255 261 266 273 286 292 288 279 271 268 270 273 272 270 271 274 277 289 302 306 303 302 294 283 278 274 268 263 260 258 259 260 263 267 268 264 256 252 249 247 246 243 243 244 244 246 245 246 245 243 241 240 243 246 248 250 251
227 229 236 241 246 250 254 257 265 281 284 277 271 268 267 267 269 270 270 270 272 275 280 287 290 288 284 281 277 275 273 266 263 263 261 260 260 263 268 269 267 261 254 251 250 250 248 249 250 252 253 251 252 253 252 247 242 243 246 247 250 253
225 225 238 241 243 244 246 251 262 276 277 271 266 264 265 267 270 270 270 270 270 272 275 275 271 267 267 268 271 273 275 270 264 263 262 263 263 264 268 269 269 265 257 253 252 252 253 255 257 258 258 257 256 257 257 253 247 246 248 250 254 260
228 225 237 244 249 248 250 257 264 272 272 269 265 263 265 268 272 274 272 271 270 270 271 272 269 266 260 258 263 268 274 272 264 263 264 265 267 267 268 269 269 266 258 255 254 255 258 261 263 262 261 262 261 259 257 254 251 250 251 254 256 260
237 239 233 243 255 254 257 259 263 269 269 267 265 265 266 268 272 275 276 276 277 275 272 270 268 265 259 255 257 261 265 263 261 265 267 269 272 271 268 267 267 265 259 256 256 257 261 265 266 265 265 265 265 263 261 259 257 255 255 256 257 258
238 240 235 247 256 256 259 259 265 268 265 264 263 263 265 268 272 275 279 281 283 283 279 274 270 267 262 256 254 257 257 254 257 265 269 271 272 272 271 269 265 263 259 257 257 258 262 266 267 269 269 269 270 269 267 266 264 260 259 260 260 260
233 236 241 251 256 257 258 259 265 265 263 262 259 259 261 264 269 273 278 280 280 281 280 278 275 274 271 264 259 256 254 253 255 261 265 267 268 271 274 272 267 262 259 259 259 260 262 266 269 270 271 273 274 274 272 270 268 265 263 264 264 264
237 240 247 254 257 258 257 258 260 260 261 260 258 259 260 261 263 265 271 275 277 278 277 276 275 277 278 276 273 266 260 258 258 260 264 266 267 272 274 274 271 265 262 261 261 262 263 266 271 273 272 272 273 273 273 270 269 271 271 269 268 267
243 245 251 254 255 256 256 256 256 257 259 258 259 261 260 261 262 263 266 269 272 273 273 273 271 271 275 280 281 276 268 261 258 258 261 265 267 271 273 273 271 267 264 262 262 262 262 265 270 272 270 271 271 271 272 270 270 274 277 277 274 270
245 247 250 252 253 253 253 254 255 257 258 258 260 262 264 266 267 269 268 266 266 268 269 269 268 266 268 278 287 285 276 266 259 256 256 260 264 267 270 271 270 268 264 262 261 261 261 262 266 267 267 270 271 270 272 273 273 272 274 277 277 274
245 247 249 251 251 250 250 252 255 256 258 260 263 266 271 272 274 278 276 269 263 262 264 264 265 266 270 280 291 295 288 275 264 257 254 255 258 262 265 268 269 268 265 263 262 262 263 262 264 267 268 268 271 272 274 275 274 273 274 275 275 275
244 247 249 249 248 248 249 252 255 258 261 265 269 272 274 273 274 280 284 276 263 258 260 260 261 264 270 279 288 295 294 285 273 262 256 253 254 257 260 264 268 269 267 265 264 263 263 263 264 266 268 268 269 272 274 274 274 274 276 277 277 277
242 245 246 246 246 248 250 253 256 261 266 271 275 275 274 274 273 274 278 276 266 260 260 262 263 264 269 275 282 288 291 288 281 271 261 255 254 255 257 260 264 268 269 267 266 265 264 263 264 266 268 268 269 271 272 273 273 273 275 277 277 278
239 242 244 244 246 248 251 254 258 263 268 273 275 275 274 274 274 273 273 272 268 263 263 265 268 270 271 274 279 283 285 285 283 277 268 260 256 255 255 257 260 264 267 269 269 269 268 268 267 267 268 269 270 271 272 272 272 272 273 274 274 274
238 240 242 243 245 248 251 253 256 260 265 269 271 274 275 276 277 278 279 279 277 274 271 271 274 277 279 279 280 282 283 282 280 277 271 264 259 256 256 256 258 261 264 267 268 268 269 269 269 269 269 270 270 271 272 272 272 271 272 272 271 270
239 240 242 243 245 247 249 250 253 257 261 266 270 273 277 278 281 283 284 285 284 282 280 278 278 281 285 286 285 283 283 281 278 273 267 262 259 259 258 258 258 260 262 265 268 269 269 270 271 272 272 272 271 271 271 269 268 268 268 268 268 268
237 238 240 241 242 243 245 248 251 254 258 263 268 272 275 279 283 286 286 285 284 283 282 281 280 282 287 289 287 283 282 280 276 269 262 258 258 260 261 262 261 262 263 265 267 269 270 270 271 271 272 272 271 269 268 265 264 264 264 264 265 266
227 229 232 235 237 239 243 246 249 253 259 263 268 272 276 280 283 285 286 285 283 282 280 279 278 279 285 289 288 285 283 280 275 268 261 258 259 263 266 268 269 269 269 269 269 270 271 271 271 271 270 269 269 268 267 265 263 262 261 262 263 263
214 217 224 230 234 239 243 248 254 259 264 267 270 276 280 282 285 286 288 288 285 280 278 279 278 276 278 284 286 285 283 279 274 268 263 262 263 267 271 274 276 277 277 277 276 275 274 273 273 271 270 269 268 267 266 264 262 260 259 260 261 262
213 214 224 230 235 244 249 256 263 266 268 271 272 275 278 280 284 287 289 289 285 280 277 279 280 275 274 278 280 281 280 275 270 266 264 266 269 273 277 280 282 283 283 283 282 280 278 276 274 272 270 269 267 265 264 263 261 259 258 258 258 259
220 217 230 239 242 249 255 258 263 266 269 273 275 274 274 277 283 288 288 285 282 277 275 278 278 275 275 275 275 278 277 272 267 265 266 270 274 279 284 286 287 287 286 285 284 283 280 278 276 274 272 270 267 265 262 261 260 257 255 254 253 252
229 223 229 241 245 248 252 253 257 264 270 272 273 273 274 278 283 290 293 288 281 277 275 276 275 275 274 271 271 276 278 273 267 266 268 272 278 284 289 290 290 288 286 285 283 281 280 278 275 274 272 270 268 264 261 258 255 253 251 250 250 250
Height
5822 5820 5819 5818 5819 5819 5817 5816 5816 5816 5817 5818 5818 5817 5818 5818 5819 5820 5822 5822 5823 5823 5823 5823 5824 5824 5824 5825 5825 5825 5825 5824 5824 5824 5824 5824 5824 5825 5825 5826 5826 5827 5828 5829 5829 5829 5829 5829 5829 5831 5832 5833 5834 5835 5835 5836 5837 5837 5838 5839 5840 5841
5820 5818 5817 5817 5816 5816 5816 5815 5815 5816 5816 5816 5816 5815 5816 5817 5818 5819 5820 5820 5820 5820 5820 5821 5821 5821 5822 5822 5822 5822 5822 5822 5822 5821 5821 5822 5822 5822 5823 5824 5824 5824 5825 5826 5828 5828 5828 5828 5828 5829 5830 5831 5832 5832 5834 5835 5835 5835 5836 5837 5838 5839
5818 5815 5815 5817 5817 5814 5813 5812 5813 5815 5815 5814 5814 5814 5814 5815 5816 5817 5818 5818 5818 5818 5818 5818 5819 5819 5820 5820 5820 5820 5819 5819 5819 5819 5819 5820 5820 5820 5821 5822 5822 5823 5823 5824 5826 5826 5826 5826 5826 5827 5828 5829 5829 5831 5832 5833 5833 5833 5834 5835 5836 5837
5816 5813 5812 5816 5816 5814 5812 5810 5811 5814 5814 5813 5811 5813 5813 5814 5815 5815 5816 5816 5815 5816 5816 5816 5816 5817 5817 5817 5817 5817 5817 5817 5817 5817 5817 5818 5818 5819 5819 5820 5820 5821 5822 5823 5824 5825 5825 5824 5824 5825 5826 5827 5828 5829 5830 5830 5830 5831 5832 5833 5834 5835
5813 5812 5811 5813 5814 5813 5812 5811 5812 5814 5815 5813 5810 5810 5812 5812 5813 5813 5813 5813 5813 5814 5814 5814 5814 5814 5814 5814 5814 5814 5814 5814 5815 5815 5816 5816 5816 5817 5817 5817 5818 5819 5820 5821 5822 5823 5823 5822 5822 5823 5824 5825 5826 5827 5827 5828 5828 5829 5830 5831 5833 5833
5810 5810 5810 5811 5811 5811 5811 5811 5812 5812 5814 5813 5809 5809 5810 5810 5811 5812 5812 5812 5812 5812 5812 5812 5811 5812 5812 5812 5812 5812 5813 5813 5813 5813 5814 5814 5814 5814 5814 5815 5815 5816 5817 5818 5819 5820 5820 5820 5820 5821 5822 5823 5824 5825 5825 5825 5826 5826 5828 5829 5831 5832
5808 5808 5808 5810 5810 5809 5808 5809 5809 5809 5811 5812 5809 5809 5809 5810 5810 5810 5810 5810 5810 5810 5810 5810 5809 5809 5809 5810 5810 5811 5811 5811 5811 5811 5811 5811 5811 5811 5812 5812 5813 5814 5815 5816 5817 5818 5818 5818 5818 5819 5820 5821 5822 5822 5823 5823 5824 5825 5826 5827 5829 5830
5806 5806 5807 5808 5808 5807 5807 5806 5806 5807 5808 5809 5809 5809 5808 5808 5809 5809 5808 5808 5808 5808 5808 5808 5807 5806 5807 5808 5808 5808 5808 5809 5809 5809 5809 5809 5809 5809 5809 5810 5811 5812 5813 5814 5815 5816 5816 5816 5817 5817 5818 5819 5820 5821 5821 5822 5823 5823 5824 5825 5827 5828
5806 5805 5805 5806 5805 5806 5808 5806 5804 5806 5807 5807 5807 5807 5806 5806 5807 5807 5806 5806 5805 5806 5806 5807 5807 5805 5805 5806 5806 5805 5805 5806 5807 5807 5807 5807 5807 5807 5808 5809 5810 5811 5812 5812 5813 5814 5814 5814 5815 5815 5817 5818 5818 5819 5820 5820 5821 5822 5822 5823 5824 5826
5806 5805 5805 5804 5803 5804 5807 5807 5805 5805 5806 5806 5805 5804 5804 5803 5805 5804 5804 5804 5803 5803 5804 5805 5805 5804 5804 5804 5803 5803 5803 5804 5805 5805 5805 5805 5805 5805 5806 5807 5808 5809 5810 5810 5811 5812 5813 5813 5813 5814 5815 5816 5817 5818 5818 5819 5820 5820 5821 5822 5823 5824
5805 5805 5804 5804 5804 5803 5803 5806 5806 5805 5804 5804 5803 5803 5803 5802 5803 5803 5802 5802 5802 5802 5802 5802 5803 5803 5803 5803 5802 5802 5803 5804 5803 5804 5803 5804 5804 5804 5804 5805 5806 5807 5808 5809 5810 5811 5811 5811 5812 5812 5813 5814 5815 5816 5817 5817 5818 5819 5820 5821 5821 5822
5803 5803 5804 5804 5804 5803 5802 5804 5804 5803 5802 5802 5802 5802 5802 5802 5802 5801 5800 5801 5801 5801 5800 5800 5800 5801 5801 5801 5801 5802 5802 5802 5802 5802 5802 5802 5803 5804 5803 5803 5804 5806 5807 5808 5808 5809 5810 5810 5811 5811 5812 5813 5813 5814 5815 5816 5817 5818 5819 5819 5820 5820
5802 5801 5803 5803 5803 5803 5802 5802 5802 5802 5802 5802 5802 5802 5801 5801 5801 5800 5799 5800 5800 5799 5798 5798 5798 5800 5800 5800 5801 5801 5801 5801 5801 5800 5800 5800 5801 5802 5802 5802 5803 5804 5805 5806 5807 5808 5809 5809 5810 5811 5811 5811 5812 5813 5813 5814 5815 5816 5817 5817 5818 5818
5800 5799 5800 5801 5802 5802 5802 5802 5802 5802 5802 5801 5801 5801 5801 5800 5800 5799 5798 5799 5798 5796 5796 5796 5798 5799 5799 5800 5800 5799 5799 5800 5800 5799 5800 5800 5800 5800 5800 5801 5802 5802 5804 5805 5806 5807 5808 5808 5809 5809 5810 5810 5811 5811 5812 5813 5813 5814 5814 5815 5815 5816
5800 5799 5799 5800 5800 5801 5802 5802 5801 5801 5800 5800 5800 5800 5800 5799 5799 5798 5797 5797 5796 5795 5795 5795 5797 5797 5798 5799 5799 5798 5798 5798 5799 5799 5799 5799 5799 5799 5799 5799 5800 5801 5803 5804 5805 5806 5806 5807 5807 5808 5808 5809 5810 5810 5811 5811 5812 5812 5813 5813 5813 5814
5798 5798 5798 5798 5798 5799 5800 5800 5800 5800 5799 5799 5799 5799 5799 5798 5797 5797 5796 5795 5795 5795 5794 5795 5796 5796 5797 5798 5798 5797 5797 5797 5798 5798 5798 5798 5798 5798 5798 5798 5799 5800 5802 5802 5803 5804 5805 5806 5806 5807 5807 5808 5809 5809 5809 5810 5810 5811 5811 5811 5812 5812
5795 5796 5796 5796 5796 5797 5798 5799 5799 5799 5798 5798 5798 5798 5797 5797 5796 5796 5795 5794 5794 5794 5794 5794 5795 5796 5796 5797 5797 5796 5796 5796 5797 5797 5797 5797 5797 5797 5797 5798 5798 5799 5800 5801 5801 5802 5804 5805 5806 5806 5807 5807 5808 5808 5808 5808 5809 5809 5809 5809 5809 5810
5792 5793 5794 5794 5794 5795 5796 5797 5797 5797 5798 5797 5797 5797 5796 5795 5795 5794 5794 5794 5793 5793 5792 5793 5794 5795 5795 5795 5795 5795 5795 5796 5796 5796 5796 5796 5796 5796 5796 5796 5797 5798 5799 5799 5800 5801 5803 5804 5805 5805 5806 5806 5806 5806 5807 5807 5808 5808 5808 5807 5807 5809
5791 5791 5792 5792 5792 5793 5794 5795 5796 5796 5796 5796 5796 5795 5795 5794 5793 5792 5792 5792 5792 5792 5791 5791 5792 5792 5793 5793 5793 5794 5795 5795 5795 5795 5794 5794 5794 5795 5795 5795 5796 5796 5797 5798 5799 5800 5801 5802 5803 5803 5804 5804 5804 5804 5805 5806 5806 5806 5806 5806 5806 5807
5790 5790 5790 5791 5791 5792 5793 5793 5794 5795 5795 5795 5794 5794 5793 5792 5792 5791 5791 5791 5791 5792 5791 5791 5791 5791 5791 5792 5792 5793 5793 5793 5793 5792 5792 5792 5793 5793 5793 5794 5795 5795 5796 5797 5797 5799 5800 5801 5801 5801 5801 5802 5802 5802 5803 5804 5804 5804 5805 5805 5805 5806
5789 5789 5789 5789 5789 5790 5791 5792 5793 5793 5793 5793 5793 5792 5792 5791 5790 5790 5789 5789 5790 5790 5790 5790 5790 5790 5791 5791 5791 5791 5792 5791 5791 5790 5790 5791 5791 5792 5792 5792 5793 5794 5795 5795 5796 5797 5798 5799 5799 5799 5800 5800 5801 5801 5801 5802 5802 5803 5803 5803 5804 5805
5787 5787 5787 5788 5788 5789 5789 5790 5791 5791 5791 5791 5791 5791 5790 5790 5789 5789 5788 5787 5787 5788 5788 5789 5789 5789 5789 5789 5790 5790 5790 5790 5789 5789 5789 5789 5789 5790 5790 5791 5792 5793 5794 5794 5795 5795 5796 5797 5797 5798 5798 5799 5799 5799 5800 5800 5801 5801 5802 5802 5803 5803
5785 5786 5786 5786 5787 5787 5787 5788 5789 5789 5789 5789 5789 5789 5789 5788 5788 5788 5787 5786 5786 5786 5786 5787 5787 5787 5787 5788 5788 5788 5788 5788 5788 5787 5787 5788 5788 5788 5789 5789 5790 5791 5792 5793 5793 5794 5795 5795 5796 5796 5797 5797 5797 5798 5798 5799 5799 5799 5800 5800 5801 5802
5784 5784 5785 5785 5785 5785 5785 5786 5786 5787 5787 5787 5787 5787 5787 5787 5787 5786 5786 5785 5785 5785 5785 5785 5785 5786 5786 5786 5786 5786 5786 5786 5786 5786 5786 5786 5786 5786 5787 5788 5789 5790 5791 5791 5791 5792 5793 5794 5794 5795 5796 5796 5796 5796 5797 5797 5798 5798 5798 5799 5799 5800
5782 5783 5783 5783 5783 5783 5783 5784 5784 5784 5784 5785 5785 5786 5786 5786 5786 5786 5785 5784 5784 5784 5784 5784 5784 5784 5784 5784 5785 5785 5785 5785 5785 5785 5785 5785 5784 5785 5785 5786 5787 5788 5788 5789 5789 5790 5791 5792 5793 5794 5794 5795 5795 5795 5795 5795 5796 5796 5797 5798 5798 5798
5780 5781 5781 5780 5781 5781 5781 5781 5782 5782 5782 5783 5784 5784 5785 5784 5784 5784 5784 5784 5783 5783 5783 5783 5783 5783 5783 5783 5783 5783 5784 5784 5784 5784 5783 5783 5783 5783 5783 5783 5785 5786 5786 5787 5787 5788 5789 5790 5791 5792 5792 5793 5793 5793 5793 5793 5794 5795 5795 5796 5796 5796
5779 5778 5778 5778 5778 5778 5779 5779 5780 5780 5780 5781 5782 5783 5783 5783 5783 5783 5783 5782 5782 5782 5782 5782 5782 5782 5782 5781 5781 5781 5782 5782 5782 5782 5782 5781 5781 5781 5781 5781 5782 5784 5784 5784 5785 5786 5787 5788 5789 5789 5790 5791 5791 5791 5791 5791 5792 5792 5793 5794 5794 5794
5777 5776 5776 5776 5776 5776 5777 5778 5778 5778 5779 5780 5781 5781 5781 5780 5780 5781 5781 5781 5781 5781 5781 5781 5781 5781 5780 5780 5779 5779 5779 5779 5779 5780 5780 5780 5779 5779 5779 5780 5780 5781 5782 5783 5783 5784 5785 5786 5786 5787 5787 5788 5788 5789 5789 5789 5790 5790 5791 5791 5791 5791
5775 5774 5774 5774 5774 5775 5776 5776 5777 5777 5777 5778 5778 5778 5778 5778 5778 5778 5778 5779 5779 5779 5778 5778 5779 5779 5779 5778 5777 5777 5777 5777 5777 5777 5777 5777 5777 5778 5778 5778 5778 5779 5780 5780 5781 5782 5782 5783 5784 5784 5785 5785 5786 5786 5786 5787 5787 5787 5788 5788 5789 5789
5772 5772 5772 5772 5773 5774 5774 5775 5775 5775 5775 5776 5776 5776 5776 5776 5776 5776 5776 5777 5776 5776 5776 5776 5776 5776 5776 5775 5775 5775 5775 5775 5775 5775 5775 5775 5775 5775 5776 5776 5776 5777 5777 5778 5779 5780 5780 5781 5781 5782 5783 5783 5783 5784 5784 5784 5784 5785 5785 5785 5786 5786
5769 5769 5770 5771 5772 5772 5773 5773 5773 5773 5773 5774 5774 5774 5774 5773 5774 5774 5774 5774 5774 5774 5773 5773 5773 5773 5773 5773 5772 5772 5772 5772 5773 5773 5773 5772 5772 5773 5773 5774 5774 5775 5775 5776 5776 5777 5778 5778 5779 5779 5780 5781 5781 5781 5782 5782 5782 5782 5782 5782 5783 5783
5765 5767 5768 5769 5770 5770 5770 5769 5770 5770 5771 5771 5771 5771 5771 5771 5771 5772 5772 5772 5771 5771 5771 5771 5771 5771 5771 5770 5770 5769 5769 5769 5770 5770 5770 5770 5770 5770 5771 5772 5772 5773 5773 5774 5774 5775 5775 5776 5776 5777 5778 5778 5779 5779 5780 5780 5780 5780 5780 5779 5780 5780
5761 5762 5764 5766 5766 5766 5765 5766 5767 5768 5769 5769 5769 5769 5769 5770 5769 5769 5769 5769 5768 5768 5768 5768 5768 5768 5768 5768 5767 5767 5766 5766 5767 5767 5767 5768 5768 5768 5768 5769 5770 5770 5771 5772 5772 5773 5773 5773 5774 5774 5775 5776 5776 5777 5777 5777 5777 5777 5777 5777 5777 5777
5759 5759 5759 5761 5762 5762 5763 5764 5766 5767 5767 5767 5768 5768 5768 5768 5768 5767 5767 5766 5766 5765 5765 5765 5765 5766 5766 5766 5765 5765 5765 5764 5765 5765 5765 5765 5766 5766 5766 5767 5767 5768 5769 5769 5770 5771 5771 5771 5772 5772 5772 5773 5773 5774 5774 5775 5775 5775 5775 5775 5775 5775
5762 5760 5759 5759 5760 5761 5763 5765 5765 5765 5765 5765 5766 5766 5766 5766 5766 5765 5765 5764 5763 5763 5763 5763 5763 5764 5764 5764 5764 5763 5763 5763 5763 5763 5764 5764 5764 5765 5765 5765 5766 5766 5767 5767 5768 5768 5769 5769 5769 5770 5770 5770 5771 5771 5772 5772 5773 5773 5773 5773 5773 5773
5763 5762 5761 5759 5759 5761 5762 5763 5763 5763 5763 5764 5764 5764 5764 5764 5764 5763 5762 5761 5761 5761 5761 5762 5762 5762 5762 5762 5762 5762 5762 5762 5762 5762 5762 5763 5763 5763 5764 5764 5764 5765 5765 5766 5766 5766 5767 5767 5767 5768 5768 5768 5769 5769 5770 5770 5771 5771 5771 5771 5771 5771
5761 5760 5759 5758 5758 5758 5760 5761 5762 5762 5762 5762 5762 5762 5762 5762 5762 5761 5760 5760 5759 5759 5760 5760 5760 5760 5760 5760 5761 5760 5760 5760 5760 5760 5761 5761 5762 5762 5762 5763 5763 5763 5764 5764 5764 5765 5765 5765 5765 5766 5766 5766 5766 5767 5767 5768 5768 5769 5769 5769 5769 5769